Temperature
19 19 19 19 21 22 23 23 24 24 24 23 23 24 24 23 23 21 18 18 18 18 18 18 18 18 18 18 18 18 18 18 18 18 18 18 18 18 18 18 18 18 18 18 18 19 18 18 18
19 19 19 20 23 23 23 24 24 24 23 23 23 23 23 22 20 19 18 18 18 18 18 17 18 18 18 18 18 17 18 18 18 18 18 18 18 18 18 18 18 18 18 18 18 18 18 18 18
19 19 20 23 23 24 24 24 24 23 23 23 23 22 22 21 19 19 18 18 18 18 17 17 18 18 18 17 17 17 17 17 17 18 18 18 18 18 18 18 18 18 18 18 18 18 18 18 18
19 20 21 24 24 24 24 24 24 24 23 23 23 22 21 19 18 18 18 18 18 18 17 17 18 17 17 17 17 17 17 17 17 17 17 17 17 17 17 18 18 18 18 18 18 18 18 18 18
19 22 23 24 24 24 24 24 24 24 24 23 23 23 21 18 18 18 18 18 18 18 17 17 18 17 17 17 17 17 17 17 17 17 17 17 17 17 17 17 17 17 17 18 18 18 18 18 18
21 23 24 24 24 24 24 23 23 24 24 23 23 23 20 18 18 18 18 18 18 17 17 17 17 17 17 17 17 17 17 17 17 17 17 17 17 17 17 17 17 17 17 17 18 18 18 18 18
22 24 24 25 24 24 24 23 24 24 24 23 23 23 20 19 18 18 17 17 17 17 17 17 17 16 16 16 16 16 16 16 16 16 16 16 16 17 17 17 17 17 17 17 17 17 17 17 17
21 24 24 24 24 24 24 23 23 24 23 22 22 23 21 19 18 18 17 17 17 17 17 16 16 16 16 16 16 16 16 16 16 16 16 16 16 16 16 16 17 17 17 17 17 17 17 17 17
21 24 24 24 24 24 24 23 23 22 22 22 21 22 21 19 18 18 18 18 17 17 17 16 16 16 15 15 15 15 15 15 15 15 15 16 16 16 16 16 16 17 17 17 17 17 17 17 17
22 24 25 25 25 25 24 24 23 23 23 22 21 20 19 19 19 19 19 18 18 17 17 16 16 16 15 15 15 15 15 15 15 15 15 15 15 15 15 15 16 16 16 17 17 17 17 17 17
23 24 25 24 23 23 24 23 23 24 24 23 22 21 19 19 19 19 19 19 18 17 17 16 16 15 15 15 15 14 14 14 14 14 14 15 15 15 15 15 15 16 16 16 16 16 17 17 17
24 24 24 24 23 23 23 23 23 23 23 22 22 21 20 20 20 19 19 18 18 17 16 16 16 15 15 15 14 14 14 14 14 14 14 14 14 15 15 15 15 15 15 15 16 16 16 16 17
24 24 23 22 22 23 23 23 23 23 22 21 21 20 20 20 20 19 19 18 17 17 16 16 15 15 15 14 14 14 14 14 14 14 14 14 14 14 14 15 15 15 15 15 15 16 16 16 16
24 23 23 22 22 22 23 23 23 23 21 21 21 21 20 20 20 19 18 18 17 17 16 15 15 14 14 14 14 14 14 13 14 13 13 13 14 14 14 14 14 15 15 15 15 15 15 16 16
23 24 24 23 23 23 23 24 24 23 21 21 21 21 20 20 19 19 18 18 17 17 16 15 14 14 14 14 13 13 13 13 13 13 13 13 13 13 14 14 14 14 14 15 15 15 15 15 16
24 24 24 24 23 22 23 24 24 22 22 22 21 21 20 19 19 19 18 18 17 16 16 15 14 14 13 13 13 13 13 13 13 13 13 13 13 13 13 13 14 14 14 14 14 14 15 15 15
24 24 24 24 24 23 23 24 24 22 22 22 22 21 20 20 19 19 18 17 17 16 15 15 14 14 13 13 13 13 13 13 13 13 13 13 13 13 13 13 13 13 13 14 14 14 14 15 15
24 25 25 25 24 23 24 24 24 22 22 23 22 22 21 21 20 19 17 17 16 16 15 14 14 13 13 13 13 13 12 12 12 12 12 12 12 12 13 13 13 13 13 13 13 14 14 14 15
25 25 25 25 24 24 24 24 25 24 22 22 22 22 22 21 20 18 17 17 16 16 15 14 14 13 13 13 13 12 12 12 12 12 12 12 12 12 12 12 13 13 13 13 13 14 14 14 14
24 24 25 25 23 24 24 25 25 24 23 23 23 23 22 21 20 18 17 17 16 16 15 15 14 13 13 12 12 12 12 12 12 12 12 12 12 12 12 12 12 12 13 13 13 13 13 14 14
24 24 25 24 23 23 24 25 25 24 23 22 22 22 22 21 20 19 18 17 16 16 15 14 14 13 13 12 12 12 12 12 12 12 12 12 12 12 12 12 12 12 12 13 13 13 13 13 14
24 24 24 24 24 25 24 24 26 25 24 23 22 22 21 20 20 19 18 17 16 16 15 14 14 13 13 12 12 12 12 12 12 12 12 12 12 12 12 12 12 12 12 12 13 13 13 13 14
24 23 24 24 24 24 24 24 26 24 25 25 24 22 21 20 19 19 18 17 16 16 15 14 14 13 13 12 12 12 12 12 12 12 12 12 12 12 12 12 12 12 12 12 12 12 13 13 13
23 23 23 24 24 24 24 24 25 26 25 25 24 22 21 20 19 18 18 17 16 15 15 14 14 13 13 13 12 12 12 12 12 12 12 12 12 12 12 12 12 12 12 12 12 12 12 13 13
23 24 24 24 24 24 23 23 25 25 24 24 24 23 21 20 19 18 18 17 16 16 15 14 14 13 13 13 12 12 12 12 12 12 12 12 12 12 12 12 12 12 12 12 12 12 12 13 13
24 25 24 23 24 24 23 24 26 24 23 22 22 22 21 20 19 18 18 17 16 16 15 15 14 13 13 13 12 12 12 12 12 12 12 12 12 12 12 11 12 12 12 12 12 12 12 12 12
24 24 25 25 24 24 25 25 25 24 23 23 22 21 21 20 19 18 18 17 16 16 15 15 14 14 13 13 13 12 12 12 12 12 11 12 11 11 12 12 12 12 12 12 12 12 12 12 12
24 25 24 24 23 23 24 24 25 25 24 24 23 22 21 20 19 18 18 17 17 16 15 15 14 14 13 13 13 12 12 12 12 12 12 12 12 12 12 12 12 12 12 12 12 12 12 12 12
23 24 24 24 24 23 23 25 25 25 24 24 24 23 21 20 19 18 18 17 17 16 15 15 14 14 13 13 13 12 12 12 12 12 12 12 12 12 12 12 12 12 12 12 12 12 12 12 12
24 25 24 24 24 23 23 25 25 24 24 23 23 22 21 20 19 18 18 17 17 16 16 15 15 14 14 13 13 13 12 12 12 12 12 12 12 12 12 12 12 12 12 12 12 12 12 12 12
Wind_Speed
8 7 4 3 3 2 2 1 1 2 2 3 4 3 4 5 4 4 4 4 5 6 6 7 6 5 4 2 1 0 0 1 1 2 3 3 4 4 4 4 4 3 3 2 2 1 1 0 0
8 5 3 3 2 2 3 2 3 3 3 3 3 3 4 6 5 5 4 5 5 6 6 6 6 4 3 1 0 2 2 3 3 3 4 4 5 5 5 5 5 5 5 4 4 3 2 2 1
8 4 3 3 1 1 3 2 4 4 4 2 2 4 4 4 4 4 5 6 7 7 6 7 5 4 3 1 1 1 2 4 5 5 5 6 6 6 6 6 6 6 6 6 5 5 4 4 3
5 4 3 3 2 2 2 3 3 3 3 2 2 5 5 5 3 5 7 7 8 7 6 7 5 4 3 2 1 1 2 3 5 5 6 6 7 7 7 6 6 7 7 7 7 7 6 5 4
4 3 4 3 2 3 2 2 2 1 2 3 3 5 6 5 6 7 7 6 7 6 6 6 5 4 3 4 4 3 2 3 4 5 6 7 7 7 7 7 8 8 8 8 8 8 8 7 6
3 3 3 2 4 4 3 2 2 1 2 3 3 5 5 6 7 7 7 6 6 6 5 5 6 5 5 5 5 4 4 3 4 4 6 7 7 6 6 6 7 8 9 9 9 9 9 8 7
3 3 2 1 3 3 3 3 2 1 2 2 2 4 6 7 7 7 7 6 6 5 4 4 3 3 3 4 5 5 5 4 4 4 6 6 6 5 6 6 6 7 9 9 9 10 9 9 8
3 3 2 2 2 3 5 4 2 1 3 3 2 2 6 9 8 7 6 5 5 4 3 3 3 4 4 3 4 5 5 4 4 4 4 5 6 7 7 8 6 6 7 8 8 8 8 8 8
3 4 2 2 2 3 6 5 3 2 4 4 2 3 7 11 10 8 6 5 4 3 3 3 4 5 5 5 4 4 2 2 4 4 3 6 7 7 7 6 4 6 7 8 7 7 7 7 8
5 3 1 1 2 3 6 5 5 5 5 5 6 6 9 11 9 7 5 3 3 2 2 3 4 4 5 5 5 5 5 4 5 5 5 6 6 6 7 3 5 6 7 8 7 7 8 8 7
4 3 1 2 2 2 4 5 5 5 4 4 6 10 11 10 8 6 4 2 2 2 2 3 4 4 5 5 5 5 5 4 5 5 5 5 6 5 5 5 5 6 7 7 6 8 8 7 6
4 3 2 3 4 4 5 4 4 5 1 2 5 11 12 10 8 6 4 3 1 1 2 3 4 5 5 6 5 4 4 4 4 5 5 5 4 4 4 4 4 4 4 4 5 5 6 7 8
6 4 3 3 4 4 4 5 4 4 3 5 8 11 10 9 7 5 4 3 2 0 1 3 4 6 6 6 5 5 4 4 4 5 5 5 4 5 4 4 3 4 4 4 5 6 6 6 7
5 5 4 4 5 4 5 5 5 4 6 9 11 10 10 8 7 5 5 3 2 0 1 2 4 5 6 6 5 5 4 4 5 5 6 6 5 5 5 5 4 4 4 4 5 6 6 6 5
4 5 5 5 5 4 5 6 6 5 9 10 11 10 9 8 7 6 4 3 1 0 1 2 3 5 6 6 6 5 4 5 4 5 6 6 6 6 5 5 5 4 4 4 4 5 5 5 6
5 6 6 5 5 4 6 5 2 6 10 11 10 10 9 8 7 6 5 4 2 1 1 2 3 4 5 5 5 5 5 5 4 5 5 6 6 6 5 5 5 4 4 4 4 4 4 5 5
7 7 6 4 6 5 7 6 3 6 10 10 10 10 10 9 8 7 6 4 3 1 0 1 3 4 5 5 4 4 4 4 4 5 5 6 6 6 5 4 5 4 4 4 4 3 4 4 5
8 7 6 4 5 7 8 8 4 6 9 10 10 10 10 9 8 7 6 5 4 2 1 1 2 4 5 4 4 4 4 4 4 4 4 6 6 6 6 4 5 4 4 3 4 4 3 3 4
5 6 6 3 2 6 9 10 7 7 9 11 11 11 10 9 8 7 7 6 5 3 2 1 3 3 4 4 4 4 4 4 4 4 5 5 5 6 5 4 4 4 3 3 4 3 4 3 3
7 7 6 2 1 5 7 10 8 7 10 11 12 12 11 10 9 8 8 7 6 4 2 2 2 3 3 3 4 4 4 4 4 4 4 5 5 5 5 4 4 3 3 3 3 3 3 3 2
8 8 6 4 2 4 6 8 6 5 7 8 10 11 10 10 10 10 9 8 6 5 3 2 2 2 3 3 3 3 3 3 2 3 4 4 5 4 5 5 4 3 3 3 3 3 3 3 3
8 4 5 5 6 4 3 6 4 5 7 9 10 11 11 11 10 9 9 8 7 5 3 2 2 2 2 3 3 4 4 4 4 4 4 4 4 4 4 4 4 3 3 3 3 3 3 3 2
2 1 3 4 6 7 5 7 3 4 6 8 9 10 11 11 10 10 9 8 6 5 3 3 2 2 2 2 2 4 4 4 4 4 4 5 4 4 4 4 4 3 3 3 3 3 3 3 3
6 4 3 4 6 7 3 5 4 3 3 4 5 7 10 11 10 9 8 7 6 5 4 3 2 2 1 2 3 3 4 5 5 5 5 4 4 4 4 4 4 3 3 3 3 3 3 3 3
6 6 4 4 4 3 1 5 5 0 2 3 3 5 7 10 10 10 10 9 7 6 5 4 3 2 2 2 2 3 3 4 5 5 4 4 4 4 5 5 5 4 4 4 3 3 2 2 2
7 6 5 4 4 4 3 5 3 1 2 3 4 4 6 9 10 10 10 9 8 7 6 5 4 3 2 2 2 2 2 3 3 4 4 4 4 4 5 5 5 4 4 3 2 2 2 2 2
5 5 3 6 6 6 4 4 5 4 5 6 6 6 8 8 9 10 9 9 8 7 7 6 4 3 3 2 2 2 2 2 3 3 3 4 4 4 5 5 5 4 3 3 2 2 2 2 2
2 2 4 5 5 6 5 6 4 2 5 7 8 8 8 8 9 10 9 9 8 7 7 6 5 4 3 2 2 1 2 2 2 3 3 4 5 5 5 5 5 4 3 2 2 2 2 2 2
5 4 4 4 5 6 5 3 1 3 3 5 7 8 8 9 9 10 9 9 8 8 7 7 6 5 4 3 2 2 1 1 2 2 3 3 4 4 4 4 5 5 4 3 2 2 2 2 2
5 5 6 7 6 6 7 5 1 3 4 5 6 7 7 8 9 9 9 10 9 9 8 8 7 5 5 4 3 2 1 1 2 2 2 3 3 4 4 4 4 4 4 4 3 3 2 2 2
Wind_Direction
166 160 175 208 216 171 119 85 59 44 60 57 51 50 50 40 17 46 68 81 106 119 121 124 111 104 102 103 60 100 153 240 249 243 235 231 229 228 224 229 234 236 236 238 245 247 210 174 32
158 165 203 225 225 153 123 112 93 59 85 95 63 57 68 66 54 74 81 88 109 111 110 104 98 96 91 80 332 304 326 324 314 305 295 278 263 254 249 245 247 246 247 249 250 249 241 241 261
161 198 230 224 199 107 113 108 100 89 94 87 78 59 55 64 62 71 78 101 112 109 104 93 90 84 74 48 312 301 306 304 303 303 304 294 288 279 271 265 261 259 259 258 258 257 252 248 250
179 204 228 224 146 90 86 106 118 121 100 73 102 93 81 62 60 84 98 106 107 104 98 91 82 76 54 3 350 323 302 289 290 292 294 297 297 294 290 285 276 267 263 262 260 257 255 250 248
210 236 225 193 134 107 97 91 120 133 99 94 97 101 97 87 95 103 105 105 102 100 93 86 69 53 36 359 350 344 320 299 289 279 272 280 290 296 298 291 286 281 272 266 265 260 257 248 247
214 239 239 193 137 123 128 132 133 134 116 113 111 110 102 114 115 110 108 102 96 89 81 76 75 55 34 10 359 351 337 325 306 297 278 269 270 278 282 287 285 284 277 272 271 267 261 251 243
246 247 252 174 146 141 140 150 169 145 133 124 131 117 124 130 124 125 120 110 97 91 81 65 49 62 77 44 15 1 351 339 323 302 285 276 273 281 282 280 280 281 278 273 272 270 262 250 241
259 258 231 184 172 150 149 155 153 158 108 116 158 128 138 144 142 138 129 121 109 95 78 58 33 15 0 4 43 5 350 341 327 312 298 285 265 252 254 258 262 276 278 273 271 272 266 250 239
231 242 230 185 183 153 165 170 153 145 138 140 130 84 116 138 150 152 146 137 120 93 66 47 25 17 1 346 10 343 342 345 295 269 264 268 265 262 250 252 259 270 274 274 272 270 266 260 238
218 240 226 175 189 163 181 190 172 173 172 163 145 128 136 151 161 161 156 139 121 85 52 28 15 8 360 349 344 332 326 324 309 312 304 290 282 271 269 229 233 249 259 256 253 255 252 247 241
215 236 191 189 190 182 182 187 189 199 198 189 168 155 156 163 168 170 161 135 95 69 37 14 4 3 354 346 338 335 324 317 305 313 309 299 292 273 264 258 231 236 241 248 233 238 239 237 236
210 215 200 169 176 192 197 188 200 219 200 128 157 156 161 171 174 178 174 153 139 46 17 6 353 351 351 346 342 327 326 325 321 318 313 304 300 292 286 272 272 262 248 245 250 247 238 237 235
211 196 193 184 185 201 205 208 225 213 186 167 157 161 169 174 173 174 172 172 187 56 359 4 351 351 350 349 331 328 332 329 328 324 314 311 300 293 290 282 278 273 266 250 247 249 239 238 240
193 183 185 190 194 201 218 220 219 205 175 171 170 172 178 179 182 181 187 197 207 237 6 10 353 355 345 342 335 339 334 325 323 325 319 317 309 297 294 284 278 277 273 270 260 251 242 236 234
174 191 198 201 204 202 224 228 221 186 177 178 182 181 185 189 192 200 195 199 204 78 6 15 352 347 344 341 339 333 328 326 326 328 320 319 310 303 298 292 286 285 281 273 267 260 248 237 232
192 214 218 186 195 193 226 249 160 175 188 190 190 187 193 198 203 199 192 196 184 184 3 9 344 340 343 338 329 329 331 330 326 328 325 321 316 309 302 293 289 288 284 276 264 257 246 240 237
203 224 231 198 196 200 226 255 153 179 199 200 196 196 201 202 204 194 194 195 188 195 282 333 341 337 339 335 324 325 326 325 326 328 331 326 323 316 308 300 296 291 281 275 269 254 253 246 239
207 223 233 233 191 213 234 252 225 196 209 213 206 206 207 211 204 194 193 193 191 201 242 322 328 330 336 330 328 331 323 323 330 331 333 329 325 323 316 302 298 297 280 275 271 265 254 255 245
221 238 254 265 197 232 251 261 254 219 215 219 215 213 213 213 199 190 190 193 198 202 238 297 315 336 336 336 330 330 329 329 334 337 340 329 325 325 317 307 307 300 286 280 273 265 253 246 246
230 245 258 252 206 252 272 270 260 228 223 224 223 217 215 208 199 192 195 196 206 208 232 277 308 331 338 337 325 321 320 319 333 328 331 336 334 327 315 311 303 299 289 280 277 266 261 251 229
232 247 263 277 241 225 280 266 230 207 217 221 226 226 219 210 208 197 197 200 204 212 224 257 296 315 330 330 324 319 313 298 324 338 337 336 332 328 321 318 312 307 296 293 283 272 263 260 239
236 248 258 252 260 264 268 287 238 200 217 217 217 215 214 207 209 201 198 202 206 208 214 240 264 301 321 317 325 331 328 337 342 333 334 330 335 336 330 321 315 315 311 301 286 280 271 266 258
233 107 220 244 261 272 244 272 263 185 226 214 210 211 210 205 204 201 198 200 201 196 202 222 244 277 303 311 323 314 328 338 337 335 339 339 350 347 343 331 324 322 316 312 303 290 275 264 266
149 158 172 215 247 262 257 263 275 207 212 188 187 199 202 200 198 196 189 189 191 189 194 207 229 250 267 286 306 317 330 330 335 343 346 341 348 350 357 340 329 325 323 314 304 289 273 270 269
203 236 245 236 236 263 136 257 265 207 218 226 204 190 190 191 191 188 185 188 190 191 195 204 216 234 240 272 301 320 325 327 334 342 345 340 345 349 351 341 331 330 327 320 306 292 287 270 267
210 244 275 288 290 301 220 250 265 140 227 237 227 201 186 187 191 190 189 189 189 191 193 201 212 224 227 263 300 319 327 324 341 342 336 341 346 351 346 339 335 333 328 321 312 297 296 292 278
195 223 293 289 291 283 262 261 271 205 220 212 204 197 194 191 191 193 190 189 189 190 192 198 205 211 216 247 281 312 334 338 342 336 336 342 346 349 348 342 340 344 339 329 329 321 321 318 303
309 180 211 257 285 285 279 272 273 215 215 207 208 207 199 190 190 192 190 190 189 189 190 193 202 209 210 225 246 291 319 332 330 328 344 341 345 351 350 354 354 359 358 342 336 328 333 311 318
175 199 234 253 272 284 297 304 10 287 262 229 218 212 203 195 193 191 189 189 187 186 189 193 198 206 211 218 224 236 274 303 311 329 341 338 343 351 359 6 3 6 7 3 356 349 352 338 332
247 245 234 256 257 255 282 289 118 246 259 245 230 213 202 196 194 191 188 186 187 190 193 197 199 201 204 210 216 229 249 271 300 328 335 339 349 357 3 10 13 12 8 6 4 3 6 4 348
Height
1518 1519 1519 1521 1520 1518 1518 1514 1511 1511 1511 1513 1513 1512 1512 1513 1517 1524 1524 1521 1523 1524 1526 1526 1528 1529 1530 1530 1531 1532 1532 1533 1533 1533 1534 1534 1534 1534 1535 1535 1534 1534 1534 1534 1534 1533 1533 1533 1533
1518 1519 1521 1520 1517 1519 1518 1512 1512 1512 1514 1515 1515 1514 1514 1517 1520 1522 1522 1523 1524 1525 1526 1528 1528 1529 1529 1530 1530 1531 1531 1532 1532 1532 1532 1533 1533 1534 1534 1534 1534 1534 1534 1534 1534 1533 1533 1533 1533
1518 1519 1521 1516 1514 1516 1516 1512 1512 1514 1515 1515 1516 1517 1518 1521 1523 1524 1524 1524 1525 1526 1527 1527 1528 1528 1529 1529 1529 1529 1530 1530 1531 1531 1531 1532 1532 1532 1533 1533 1533 1533 1533 1533 1533 1533 1533 1532 1532
1518 1520 1519 1514 1514 1512 1512 1512 1513 1514 1516 1516 1516 1518 1521 1524 1525 1525 1525 1526 1527 1527 1528 1528 1528 1528 1528 1528 1528 1528 1528 1528 1528 1529 1529 1530 1530 1531 1531 1531 1531 1531 1532 1532 1532 1532 1532 1532 1532
1518 1518 1514 1513 1512 1511 1512 1513 1514 1514 1515 1516 1517 1518 1523 1525 1525 1526 1526 1527 1528 1529 1529 1528 1528 1527 1527 1527 1527 1527 1526 1526 1526 1527 1527 1528 1528 1528 1528 1529 1529 1530 1530 1530 1530 1531 1531 1531 1531
1518 1515 1513 1513 1512 1511 1512 1514 1515 1514 1515 1518 1518 1519 1524 1526 1526 1527 1528 1528 1529 1529 1529 1529 1528 1527 1526 1526 1526 1525 1525 1525 1524 1524 1525 1525 1526 1526 1526 1526 1526 1527 1528 1528 1529 1529 1529 1529 1529
1517 1512 1511 1509 1512 1512 1513 1514 1514 1514 1515 1518 1519 1520 1524 1526 1527 1528 1528 1529 1529 1529 1529 1529 1529 1528 1526 1525 1524 1524 1523 1523 1522 1522 1522 1522 1522 1523 1523 1523 1524 1524 1525 1525 1526 1527 1528 1528 1528
1515 1512 1510 1510 1512 1512 1513 1514 1515 1515 1517 1520 1520 1520 1523 1526 1527 1528 1529 1529 1529 1529 1529 1529 1528 1527 1527 1525 1523 1522 1521 1521 1520 1520 1520 1519 1520 1520 1520 1520 1521 1521 1522 1523 1523 1524 1525 1525 1525
1514 1513 1511 1510 1511 1510 1513 1514 1516 1517 1518 1520 1521 1522 1524 1525 1527 1528 1529 1530 1530 1530 1529 1529 1528 1527 1525 1524 1522 1521 1520 1519 1518 1518 1517 1517 1518 1518 1518 1518 1517 1518 1519 1520 1520 1522 1522 1523 1523
1513 1511 1508 1507 1507 1509 1512 1513 1515 1516 1517 1519 1521 1522 1524 1525 1527 1528 1529 1530 1530 1530 1530 1529 1527 1526 1525 1523 1522 1520 1519 1518 1518 1517 1516 1516 1515 1515 1515 1514 1514 1515 1515 1516 1517 1518 1519 1520 1521
1509 1508 1506 1508 1510 1511 1512 1513 1515 1514 1514 1516 1519 1522 1523 1525 1527 1528 1529 1530 1530 1530 1529 1528 1527 1525 1524 1522 1521 1519 1518 1516 1516 1515 1514 1513 1513 1513 1513 1513 1513 1512 1512 1514 1514 1515 1517 1518 1519
1508 1507 1507 1508 1510 1511 1512 1513 1514 1514 1515 1517 1518 1521 1523 1524 1526 1527 1528 1529 1529 1529 1528 1527 1526 1525 1523 1521 1520 1518 1517 1516 1515 1513 1513 1512 1511 1511 1511 1510 1511 1510 1510 1510 1511 1512 1514 1515 1516
1506 1506 1508 1509 1510 1511 1511 1512 1513 1513 1515 1517 1518 1520 1522 1523 1525 1527 1527 1528 1528 1528 1527 1526 1525 1523 1522 1520 1518 1517 1516 1514 1513 1511 1510 1510 1509 1509 1509 1508 1508 1508 1508 1508 1508 1509 1510 1511 1513
1505 1506 1508 1508 1509 1510 1511 1511 1512 1511 1514 1516 1518 1519 1521 1523 1524 1525 1526 1527 1527 1527 1526 1525 1523 1522 1520 1519 1517 1516 1514 1512 1511 1510 1509 1508 1507 1506 1506 1506 1505 1505 1505 1505 1505 1506 1506 1507 1509
1506 1506 1506 1507 1508 1509 1510 1508 1508 1510 1512 1514 1516 1518 1520 1522 1523 1524 1525 1526 1526 1526 1525 1524 1522 1521 1519 1517 1516 1514 1513 1512 1510 1508 1507 1506 1505 1504 1503 1503 1503 1503 1503 1503 1503 1503 1503 1504 1505
1504 1504 1506 1504 1506 1508 1511 1508 1505 1508 1510 1512 1514 1516 1519 1520 1522 1523 1524 1525 1525 1524 1524 1522 1521 1520 1518 1516 1514 1513 1512 1510 1508 1507 1505 1504 1503 1502 1501 1500 1500 1500 1500 1500 1500 1500 1500 1501 1502
1503 1505 1504 1503 1505 1506 1507 1504 1504 1507 1508 1510 1512 1514 1517 1518 1520 1521 1522 1523 1523 1523 1522 1521 1520 1518 1517 1515 1513 1511 1510 1508 1507 1506 1504 1502 1501 1500 1499 1498 1497 1497 1497 1497 1498 1498 1498 1498 1499
1503 1501 1501 1502 1502 1504 1504 1501 1502 1505 1506 1507 1509 1512 1514 1516 1518 1519 1520 1521 1521 1521 1521 1520 1519 1517 1515 1514 1512 1511 1509 1508 1506 1504 1502 1500 1499 1498 1497 1496 1495 1495 1495 1494 1495 1495 1495 1496 1496
1496 1499 1500 1499 1500 1502 1500 1498 1497 1501 1503 1505 1506 1508 1510 1513 1516 1517 1518 1519 1519 1520 1520 1519 1518 1517 1514 1513 1511 1510 1508 1507 1505 1503 1500 1499 1498 1496 1495 1494 1493 1493 1493 1492 1493 1493 1493 1494 1494
1498 1500 1499 1498 1501 1500 1498 1496 1493 1496 1499 1500 1502 1504 1507 1510 1513 1515 1516 1517 1518 1518 1518 1518 1517 1515 1514 1511 1510 1508 1507 1505 1503 1501 1499 1498 1496 1494 1494 1493 1492 1491 1491 1491 1491 1491 1491 1492 1492
1498 1499 1498 1500 1500 1500 1500 1494 1490 1492 1496 1498 1500 1502 1504 1507 1510 1512 1514 1515 1516 1516 1516 1516 1515 1514 1512 1511 1509 1507 1506 1505 1503 1501 1499 1497 1495 1493 1492 1491 1491 1490 1490 1490 1489 1490 1490 1490 1491
1499 1496 1498 1500 1501 1497 1500 1500 1487 1488 1492 1494 1497 1499 1501 1504 1507 1509 1511 1513 1514 1514 1514 1514 1514 1513 1512 1510 1509 1507 1506 1505 1503 1500 1498 1496 1495 1493 1491 1490 1489 1489 1489 1488 1488 1488 1488 1488 1489
1496 1499 1498 1499 1499 1499 1496 1498 1486 1487 1488 1488 1491 1495 1498 1501 1504 1507 1508 1510 1512 1512 1512 1513 1512 1512 1510 1509 1507 1506 1505 1504 1502 1500 1498 1496 1495 1492 1491 1490 1489 1488 1488 1487 1487 1486 1487 1487 1488
1500 1500 1500 1498 1497 1503 1496 1499 1492 1482 1483 1484 1488 1492 1495 1498 1501 1504 1506 1508 1509 1510 1510 1511 1511 1510 1509 1508 1507 1506 1505 1503 1501 1500 1498 1496 1495 1493 1491 1490 1489 1488 1487 1487 1486 1485 1485 1486 1486
1499 1499 1504 1504 1504 1499 1497 1499 1489 1480 1483 1486 1487 1490 1493 1496 1499 1501 1503 1505 1507 1508 1509 1509 1509 1509 1508 1507 1506 1505 1504 1502 1501 1499 1498 1496 1495 1493 1491 1489 1488 1487 1486 1485 1485 1484 1484 1485 1485
1495 1495 1505 1511 1507 1497 1497 1495 1482 1482 1485 1487 1488 1490 1492 1494 1496 1499 1501 1503 1504 1506 1507 1507 1508 1508 1507 1506 1506 1505 1504 1502 1501 1499 1498 1496 1495 1493 1491 1489 1488 1486 1485 1485 1484 1484 1484 1484 1484
1494 1493 1492 1496 1498 1502 1490 1486 1479 1480 1483 1485 1487 1489 1490 1492 1494 1496 1499 1501 1502 1504 1505 1506 1506 1506 1506 1506 1505 1504 1503 1502 1501 1499 1498 1496 1494 1492 1490 1489 1487 1486 1485 1484 1484 1483 1483 1483 1483
1492 1491 1495 1498 1505 1504 1495 1489 1482 1477 1479 1481 1484 1486 1488 1490 1492 1494 1496 1498 1500 1502 1503 1504 1504 1505 1505 1504 1504 1503 1503 1502 1500 1499 1498 1496 1494 1492 1491 1489 1487 1486 1485 1484 1483 1483 1483 1483 1482
1495 1495 1493 1494 1497 1503 1501 1489 1475 1476 1477 1478 1480 1483 1485 1487 1490 1492 1494 1496 1498 1499 1500 1502 1503 1503 1503 1503 1503 1503 1502 1501 1500 1499 1497 1496 1494 1493 1491 1489 1488 1487 1485 1484 1484 1483 1483 1482 1482
1489 1488 1491 1497 1496 1497 1498 1489 1473 1476 1477 1478 1479 1481 1483 1485 1487 1489 1491 1493 1495 1497 1498 1500 1501 1501 1502 1502 1502 1502 1501 1500 1500 1499 1498 1496 1495 1493 1492 1490 1489 1487 1486 1485 1484 1483 1483 1482 1482